Regional Weather Roundup
Issued by NWS

Home | Current Version | Previous Version | Text Only | Print | Product List | Glossary On
Versions: 1 2 3 4 5 6 7 8 9 10 11 12 13 14 15 16 17 18 19 20 21 22 23 24 25 26 27
000
ASUS46 KSEW 290710
RWRWA

WASHINGTON REGIONAL WEATHER ROUNDUP
NATIONAL WEATHER SERVICE SEATTLE WA
1200 AM PDT THU JUN 29 2017

NOTE:"FAIR" INDICATES FEW OR NO CLOUDS BELOW 12,000 FEET WITH NO
SIGNIFICANT WEATHER AND/OR OBSTRUCTIONS TO VISIBILITY.

WAZ507-509-555>559-290800-
SEATTLE, TACOMA, EVERETT, AND VICINITY

CITY           SKY/WX    TMP DP  RH WIND       PRES   REMARKS
EVERETT        CLOUDY    60  51  72 S6        30.09S
BOEING FIELD   CLEAR     59  53  80 CALM      30.09R
RENTON         CLEAR     60  52  74 S5        30.09R
SEATAC AIRPORT CLEAR     57  50  77 SW5       30.10R
JBLM-MCCHORD   CLEAR     54  52  93 CALM      30.10R
PUYALLUP       FAIR      54  52  94 CALM      30.10S
BREMERTON      CLEAR     50  49  96 SW3       30.10R
JBLM-FT LEWIS  CLEAR     53  53  99 SE3       30.09S
TACOMA NARROWS CLEAR     55  50  83 SW3       30.11R
$$

WAZ001-503-506-510-514-515-290800-
NORTH INTERIOR

CITY           SKY/WX    TMP DP  RH WIND       PRES   REMARKS
BELLINGHAM     CLEAR     61  56  83 S6        30.06R
FRIDAY HARBOR  CLEAR     50  50 100 CALM      30.08R
EASTSOUND      CLEAR     61  54  77 S8        30.06S
PORT ANGELES   CLEAR     52  51  97 W6        30.09R
EDIZ HOOK      FAIR      54  50  87 W7        30.09R
PORT TOWNSEND    N/A     50  50 100 CALM      30.09R
NAS WHIDBEY    PTCLDY    56  49  77 SW3       30.12S
ARLINGTON      CLOUDY    60  54  80 S3        30.08S
BURLINGTON     MOCLDY    57  54  88 CALM      30.08S
$$

WAZ020-022-039-040-504-511-512-290800-
SOUTHWEST INTERIOR

CITY           SKY/WX    TMP DP  RH WIND       PRES   REMARKS
SHELTON        NOT AVBL
OLYMPIA        CLEAR     53  49  86 SW3       30.10S
CHEHALIS       MOCLDY    50  50 100 CALM      30.11S
KELSO          CLOUDY    58  50  75 CALM      30.11S
VANCOUVER      CLEAR     59  51  75 NW6       30.08S
SCAPPOOSE, OR  CLEAR     56  49  77 N3        30.08S
PORTLAND, OR   CLEAR     58  50  75 NW7       30.09R
$$

WAZ021-516-517-290800-
WASHINGTON COAST

CITY           SKY/WX    TMP DP  RH WIND       PRES   REMARKS
FORKS          CLOUDY    55  50  83 CALM      30.10S
HOQUIAM        CLOUDY    57  51  80 NW5       30.11S
ASTORIA, OR    CLOUDY    57  48  72 NW5       30.11S
$$

WAZ019-023-024-040-567>569-290800-
CASCADE MOUNTAINS AND COLUMBIA GORGE

CITY           SKY/WX    TMP DP  RH WIND       PRES   REMARKS
STAMPEDE PASS  FOG       47  46  97 VRB3      30.10S VSB 1/4
TROUTDALE, OR  CLEAR     59  50  72 VRB5      30.08R
HOOD RIVER, OR SUNNY     59  50  72 CALM      30.01S
THE DALLES, OR CLEAR     65  50  58 NW17      29.95S
$$

WAZ026-027-041>044-520-521-290800-
EAST SLOPES

CITY           SKY/WX    TMP DP  RH WIND       PRES   REMARKS
OMAK           CLEAR     61  46  57 N10       29.97R
WENATCHEE      CLEAR     64  46  52 N10       29.97R
ELLENSBURG     CLEAR     59  45  59 NW17G26   29.99R
YAKIMA         CLEAR     66  43  43 NW7       29.96R
SUNNYSIDE ARPT SUNNY     69  44  40 NW7       29.92R
YAKIMA TC      FAIR      61  42  48 E13       29.95R
$$

WAZ028-034-035-290800-
COLUMBIA BASIN

CITY           SKY/WX    TMP DP  RH WIND       PRES   REMARKS
EPHRATA        PTCLDY    68  43  40 NW8       29.94R
MOSES LAKE     CLOUDY    67  48  50 N12       29.94R
PASCO          CLEAR     66  49  54 N10       29.88R
RICHLAND ARPT  SUNNY     72  49  43 N10G18    29.91R
HERMISTON, OR  CLEAR     64  46  52 SW16      29.91R
$$

WAZ036>038-290800-
NORTHEAST WASHINGTON

CITY           SKY/WX    TMP DP  RH WIND       PRES   REMARKS
SPOKANE GEIGER MOCLDY    57  54  89 SE3       29.95S
SPOKANE FELTS  MOCLDY    57  55  93 CALM      29.95S
FAIRCHILD AFB  MOCLDY    54  54 100 CALM      29.95R
COEURDALENE,ID MOCLDY    56  54  93 N5        29.97S
DEER PARK      PTCLDY    52  49  89 N5        29.96S
$$

WAZ029>033-290800-
SOUTHEAST WASHINGTON

CITY           SKY/WX    TMP DP  RH WIND       PRES   REMARKS
PULLMAN        CLOUDY    61  47  59 N22G28    29.97R
LEWISTON, ID   CLOUDY    68  47  46 NW5       29.91R
WALLA WALLA    PTCLDY    65  47  52 S10       29.93R
PENDLETON, OR  CLEAR     61  45  55 VRB3      29.95R
$$




USA.gov is the U.S. government's official web portal to all federal, state and local government web resources and services.